| time (UTC) | temp C | wind direction | speed KPH | gust KPH | rain 1hr cm | rain 24hr cm | rain mn cm | humidity % | barometer mb |
| 20260504151002 | 18 | 186 | 4.8 | 17.7 | 0.00 | 0.00 | 0.00 | 34 | 1012.0 |
| 20260504150508 | 18 | 215 | 1.6 | 16.1 | 0.00 | 0.00 | 0.00 | 35 | 1012.0 |
| 20260504141007 | 16 | 333 | 6.4 | 17.7 | 0.00 | 0.00 | 0.00 | 38 | 1012.4 |
| 20260504140508 | 16 | 298 | 1.6 | 12.9 | 0.00 | 0.00 | 0.00 | 41 | 1012.5 |
| 20260504130513 | 11 | 286 | 3.2 | 9.7 | 0.00 | 0.00 | 0.00 | 52 | 1012.9 |
| 20260504110507 | 0 | 240 | 0.0 | 0.0 | 0.00 | 0.00 | 0.00 | 90 | 1013.7 |
| 20260504100507 | 0 | 240 | 0.0 | 0.0 | 0.00 | 0.00 | 0.00 | 87 | 1013.6 |
| 20260504082002 | 1 | 240 | 0.0 | 0.0 | 0.00 | 0.00 | 0.00 | 85 | 1013.5 |
| 20260504081507 | 1 | 240 | 0.0 | 0.0 | 0.00 | 0.00 | 0.00 | 85 | 1013.6 |
| 20260504081002 | 1 | 240 | 0.0 | 0.0 | 0.00 | 0.00 | 0.00 | 85 | 1013.6 |
| 20260504080506 | 1 | 240 | 0.0 | 0.0 | 0.00 | 0.00 | 0.00 | 85 | 1013.6 |
| 20260504050505 | 2 | 240 | 0.0 | 0.0 | 0.00 | 0.00 | 0.00 | 81 | 1013.2 |
| 20260504050007 | 3 | 240 | 0.0 | 0.0 | 0.00 | 0.00 | 0.00 | 81 | 1013.3 |
| 20260504045504 | 3 | 240 | 0.0 | 0.0 | 0.00 | 0.00 | 0.00 | 80 | 1013.3 |
| 20260504045003 | 3 | 240 | 0.0 | 0.0 | 0.00 | 0.00 | 0.00 | 79 | 1013.2 |
| 20260504044512 | 3 | 240 | 0.0 | 0.0 | 0.00 | 0.00 | 0.00 | 78 | 1013.2 |
| 20260504044003 | 3 | 240 | 0.0 | 0.0 | 0.00 | 0.00 | 0.00 | 78 | 1013.2 |
| 20260504043504 | 3 | 240 | 0.0 | 0.0 | 0.00 | 0.00 | 0.00 | 77 | 1013.2 |
| 20260504043015 | 3 | 240 | 0.0 | 0.0 | 0.00 | 0.00 | 0.00 | 77 | 1013.2 |
| 20260504042505 | 3 | 240 | 0.0 | 0.0 | 0.00 | 0.00 | 0.00 | 76 | 1013.1 |
| 20260504042004 | 3 | 240 | 0.0 | 0.0 | 0.00 | 0.00 | 0.00 | 76 | 1013.1 |
| 20260504041515 | 3 | 240 | 0.0 | 0.0 | 0.00 | 0.00 | 0.00 | 75 | 1013.0 |
| 20260504041004 | 3 | 240 | 0.0 | 0.0 | 0.00 | 0.00 | 0.00 | 75 | 1012.9 |
| 20260504040504 | 3 | 240 | 0.0 | 0.0 | 0.00 | 0.00 | 0.00 | 74 | 1012.9 |
| 20260504040018 | 3 | 240 | 0.0 | 0.0 | 0.00 | 0.00 | 0.00 | 75 | 1012.9 |
| 20260504035502 | 4 | 240 | 0.0 | 0.0 | 0.00 | 0.00 | 0.00 | 74 | 1012.8 |
| 20260504035005 | 4 | 240 | 0.0 | 0.0 | 0.00 | 0.00 | 0.00 | 73 | 1012.7 |
| 20260504034528 | 4 | 240 | 0.0 | 0.0 | 0.00 | 0.00 | 0.00 | 73 | 1012.7 |
| 20260504034002 | 4 | 240 | 0.0 | 0.0 | 0.00 | 0.00 | 0.00 | 72 | 1012.6 |
| 20260504033506 | 4 | 240 | 0.0 | 0.0 | 0.00 | 0.00 | 0.00 | 72 | 1012.6 |
| 20260504033026 | 4 | 240 | 0.0 | 0.0 | 0.00 | 0.00 | 0.00 | 72 | 1012.5 |
| 20260504032504 | 5 | 240 | 0.0 | 0.0 | 0.00 | 0.00 | 0.00 | 72 | 1012.6 |
| 20260504032007 | 5 | 240 | 0.0 | 0.0 | 0.00 | 0.00 | 0.00 | 71 | 1012.6 |
| 20260504031514 | 5 | 240 | 0.0 | 0.0 | 0.00 | 0.00 | 0.00 | 70 | 1012.6 |
| 20260504031006 | 5 | 240 | 0.0 | 0.0 | 0.00 | 0.00 | 0.00 | 71 | 1012.5 |
| 20260504030503 | 5 | 240 | 0.0 | 0.0 | 0.00 | 0.00 | 0.00 | 69 | 1012.5 |
| 20260504030010 | 5 | 240 | 0.0 | 0.0 | 0.00 | 0.00 | 0.00 | 69 | 1012.5 |
| 20260504025507 | 5 | 240 | 0.0 | 0.0 | 0.00 | 0.00 | 0.00 | 68 | 1012.5 |
| 20260504025003 | 5 | 240 | 0.0 | 0.0 | 0.00 | 0.00 | 0.00 | 67 | 1012.5 |
| 20260504024535 | 6 | 240 | 0.0 | 0.0 | 0.00 | 0.00 | 0.00 | 67 | 1012.5 |
| 20260504024007 | 6 | 240 | 0.0 | 0.0 | 0.00 | 0.00 | 0.00 | 66 | 1012.4 |
| 20260504023502 | 6 | 240 | 0.0 | 0.0 | 0.00 | 0.00 | 0.00 | 66 | 1012.4 |
| 20260504023018 | 6 | 240 | 0.0 | 0.0 | 0.00 | 0.00 | 0.00 | 66 | 1012.4 |
| 20260504022506 | 6 | 240 | 0.0 | 0.0 | 0.00 | 0.00 | 0.00 | 65 | 1012.4 |
| 20260504022007 | 6 | 240 | 0.0 | 0.0 | 0.00 | 0.00 | 0.00 | 64 | 1012.5 |
| 20260504021517 | 6 | 240 | 0.0 | 0.0 | 0.00 | 0.00 | 0.00 | 64 | 1012.5 |
| 20260504021003 | 7 | 240 | 0.0 | 0.0 | 0.00 | 0.00 | 0.00 | 64 | 1012.5 |
| 20260504020506 | 7 | 240 | 0.0 | 0.0 | 0.00 | 0.00 | 0.00 | 64 | 1012.4 |
| 20260504020017 | 7 | 240 | 0.0 | 0.0 | 0.00 | 0.00 | 0.00 | 63 | 1012.3 |
| 20260504015503 | 7 | 239 | 0.0 | 0.0 | 0.00 | 0.00 | 0.00 | 63 | 1012.1 |
| 20260504015007 | 7 | 239 | 0.0 | 0.0 | 0.00 | 0.00 | 0.00 | 62 | 1012.1 |
| 20260504014520 | 7 | 239 | 0.0 | 0.0 | 0.00 | 0.00 | 0.00 | 61 | 1012.1 |
| 20260504014007 | 7 | 239 | 0.0 | 0.0 | 0.00 | 0.00 | 0.00 | 59 | 1012.1 |
| 20260504013506 | 8 | 239 | 0.0 | 0.0 | 0.00 | 0.00 | 0.00 | 59 | 1012.0 |
| 20260504013016 | 8 | 239 | 0.0 | 0.0 | 0.00 | 0.00 | 0.00 | 57 | 1012.0 |
| 20260504012507 | 8 | 239 | 0.0 | 0.0 | 0.00 | 0.00 | 0.00 | 56 | 1012.0 |
| 20260504012007 | 8 | 239 | 0.0 | 0.0 | 0.00 | 0.00 | 0.00 | 54 | 1012.0 |
| 20260504011514 | 8 | 239 | 0.0 | 0.0 | 0.00 | 0.00 | 0.00 | 53 | 1011.9 |
| 20260504011008 | 9 | 239 | 0.0 | 0.0 | 0.00 | 0.00 | 0.00 | 53 | 1011.8 |
| 20260504010510 | 9 | 239 | 0.0 | 0.0 | 0.00 | 0.00 | 0.00 | 51 | 1011.8 |
| 20260504010019 | 10 | 239 | 0.0 | 0.0 | 0.00 | 0.00 | 0.00 | 51 | 1011.8 |
| 20260504005506 | 10 | 239 | 0.0 | 0.0 | 0.00 | 0.00 | 0.00 | 49 | 1011.7 |
| 20260504005006 | 10 | 239 | 0.0 | 0.0 | 0.00 | 0.00 | 0.00 | 49 | 1011.7 |
| 20260504004534 | 10 | 239 | 0.0 | 0.0 | 0.00 | 0.00 | 0.00 | 48 | 1011.7 |
| 20260504004006 | 10 | 239 | 0.0 | 0.0 | 0.00 | 0.00 | 0.00 | 47 | 1011.7 |
| 20260504003507 | 11 | 239 | 0.0 | 0.0 | 0.00 | 0.00 | 0.00 | 46 | 1011.5 |
| 20260504003019 | 11 | 239 | 0.0 | 0.0 | 0.00 | 0.00 | 0.00 | 45 | 1011.5 |
| 20260504002506 | 11 | 247 | 0.0 | 0.0 | 0.00 | 0.00 | 0.00 | 44 | 1011.5 |
| 20260504002006 | 11 | 247 | 0.0 | 0.0 | 0.00 | 0.00 | 0.00 | 43 | 1011.5 |
| 20260504001519 | 12 | 247 | 0.0 | 3.2 | 0.00 | 0.00 | 0.00 | 44 | 1011.4 |
| 20260504001007 | 12 | 247 | 0.0 | 3.2 | 0.00 | 0.00 | 0.00 | 43 | 1011.4 |
| 20260504000507 | 12 | 282 | 0.0 | 3.2 | 0.00 | 0.00 | 0.00 | 42 | 1011.3 |
| 20260504000021 | 12 | 223 | 0.0 | 3.2 | 0.00 | 0.00 | 0.00 | 43 | 1011.2 |
| 20260503235504 | 12 | 244 | 0.0 | 3.2 | 0.00 | 0.00 | 0.00 | 40 | 1011.2 |
| 20260503235006 | 12 | 203 | 0.0 | 3.2 | 0.00 | 0.00 | 0.00 | 42 | 1011.1 |
| 20260503234518 | 13 | 143 | 0.0 | 3.2 | 0.00 | 0.00 | 0.00 | 37 | 1011.1 |
| 20260503234006 | 13 | 155 | 0.0 | 3.2 | 0.00 | 0.00 | 0.00 | 38 | 1011.0 |
| 20260503233509 | 13 | 132 | 0.0 | 3.2 | 0.00 | 0.00 | 0.00 | 40 | 1011.0 |
| 20260503233018 | 13 | 283 | 0.0 | 3.2 | 0.00 | 0.00 | 0.00 | 37 | 1010.9 |
| 20260503232506 | 13 | 283 | 0.0 | 3.2 | 0.00 | 0.00 | 0.00 | 35 | 1010.9 |
| 20260503232007 | 13 | 101 | 0.0 | 4.8 | 0.00 | 0.00 | 0.00 | 35 | 1010.9 |
| 20260503231516 | 13 | 132 | 0.0 | 4.8 | 0.00 | 0.00 | 0.00 | 35 | 1010.9 |
| 20260503231012 | 13 | 239 | 0.0 | 4.8 | 0.00 | 0.00 | 0.00 | 33 | 1010.9 |
| 20260503230507 | 13 | 262 | 0.0 | 3.2 | 0.00 | 0.00 | 0.00 | 34 | 1010.8 |
| 20260503230022 | 14 | 84 | 0.0 | 3.2 | 0.00 | 0.00 | 0.00 | 34 | 1010.8 |
| 20260503225506 | 14 | 322 | 0.0 | 4.8 | 0.00 | 0.00 | 0.00 | 33 | 1010.8 |
| 20260503225012 | 14 | 295 | 1.6 | 4.8 | 0.00 | 0.00 | 0.00 | 33 | 1010.8 |
| 20260503224520 | 14 | 180 | 0.0 | 6.4 | 0.00 | 0.00 | 0.00 | 34 | 1010.8 |
| 20260503224008 | 14 | 50 | 1.6 | 12.9 | 0.00 | 0.00 | 0.00 | 32 | 1010.8 |
| 20260503223506 | 14 | 336 | 0.0 | 12.9 | 0.00 | 0.00 | 0.00 | 31 | 1010.8 |
| 20260503223009 | 14 | 56 | 3.2 | 6.4 | 0.00 | 0.00 | 0.00 | 31 | 1010.8 |
| 20260503222502 | 15 | 77 | 0.0 | 19.3 | 0.00 | 0.00 | 0.00 | 32 | 1010.8 |
| 20260503222002 | 15 | 184 | 1.6 | 19.3 | 0.00 | 0.00 | 0.00 | 31 | 1010.9 |
| 20260503221506 | 15 | 220 | 1.6 | 6.4 | 0.00 | 0.00 | 0.00 | 31 | 1010.8 |
| 20260503221006 | 15 | 173 | 0.0 | 8.0 | 0.00 | 0.00 | 0.00 | 31 | 1010.8 |
| 20260503220505 | 15 | 53 | 1.6 | 9.7 | 0.00 | 0.00 | 0.00 | 31 | 1010.8 |
| 20260503220003 | 15 | 28 | 1.6 | 9.7 | 0.00 | 0.00 | 0.00 | 29 | 1010.8 |
| 20260503215505 | 15 | 322 | 3.2 | 8.0 | 0.00 | 0.00 | 0.00 | 30 | 1010.7 |
| 20260503215002 | 15 | 132 | 1.6 | 8.0 | 0.00 | 0.00 | 0.00 | 29 | 1010.7 |
| 20260503214503 | 15 | 130 | 1.6 | 8.0 | 0.00 | 0.00 | 0.00 | 30 | 1010.7 |
| 20260503214003 | 15 | 82 | 3.2 | 14.5 | 0.00 | 0.00 | 0.00 | 28 | 1010.5 |
| 20260503213503 | 15 | 114 | 0.0 | 14.5 | 0.00 | 0.00 | 0.00 | 30 | 1010.5 |
| 20260503213021 | 15 | 326 | 3.2 | 12.9 | 0.00 | 0.00 | 0.00 | 28 | 1010.5 |
| 20260503212503 | 15 | 118 | 1.6 | 11.3 | 0.00 | 0.00 | 0.00 | 28 | 1010.4 |
| 20260503212004 | 16 | 242 | 0.0 | 11.3 | 0.00 | 0.00 | 0.00 | 29 | 1010.3 |
| 20260503211525 | 16 | 112 | 3.2 | 8.0 | 0.00 | 0.00 | 0.00 | 28 | 1010.3 |
| 20260503211003 | 16 | 146 | 1.6 | 16.1 | 0.00 | 0.00 | 0.00 | 30 | 1010.2 |
| 20260503210503 | 16 | 91 | 3.2 | 16.1 | 0.00 | 0.00 | 0.00 | 27 | 1010.3 |
| 20260503210014 | 16 | 244 | 3.2 | 12.9 | 0.00 | 0.00 | 0.00 | 27 | 1010.2 |
| 20260503205502 | 16 | 333 | 3.2 | 12.9 | 0.00 | 0.00 | 0.00 | 27 | 1010.2 |
| 20260503205006 | 16 | 153 | 1.6 | 12.9 | 0.00 | 0.00 | 0.00 | 26 | 1010.1 |
| 20260503204513 | 16 | 265 | 4.8 | 14.5 | 0.00 | 0.00 | 0.00 | 27 | 1010.2 |
| 20260503204002 | 16 | 9 | 4.8 | 14.5 | 0.00 | 0.00 | 0.00 | 28 | 1010.3 |
| 20260503203507 | 16 | 15 | 1.6 | 14.5 | 0.00 | 0.00 | 0.00 | 29 | 1010.3 |
| 20260503203010 | 16 | 286 | 4.8 | 14.5 | 0.00 | 0.00 | 0.00 | 27 | 1010.5 |
| 20260503202503 | 16 | 101 | 3.2 | 14.5 | 0.00 | 0.00 | 0.00 | 28 | 1010.3 |
| 20260503202004 | 15 | 184 | 6.4 | 14.5 | 0.00 | 0.00 | 0.00 | 27 | 1010.6 |
| 20260503201510 | 15 | 333 | 3.2 | 14.5 | 0.00 | 0.00 | 0.00 | 26 | 1010.7 |
| 20260503201007 | 15 | 98 | 0.0 | 14.5 | 0.00 | 0.00 | 0.00 | 33 | 1010.7 |
| 20260503200504 | 15 | 180 | 1.6 | 17.7 | 0.00 | 0.00 | 0.00 | 29 | 1010.7 |
| 20260503200006 | 15 | 360 | 8.0 | 22.5 | 0.00 | 0.00 | 0.00 | 31 | 1010.9 |
| 20260503195512 | 14 | 127 | 1.6 | 22.5 | 0.00 | 0.00 | 0.00 | 33 | 1010.9 |
| 20260503195005 | 14 | 51 | 0.0 | 14.5 | 0.00 | 0.00 | 0.00 | 30 | 1011.1 |
| 20260503194504 | 14 | 22 | 3.2 | 22.5 | 0.00 | 0.00 | 0.00 | 29 | 1011.2 |
| 20260503194008 | 14 | 53 | 6.4 | 22.5 | 0.00 | 0.00 | 0.00 | 29 | 1011.2 |
| 20260503193507 | 14 | 329 | 4.8 | 24.1 | 0.00 | 0.00 | 0.00 | 32 | 1011.2 |
| 20260503193009 | 14 | 28 | 4.8 | 24.1 | 0.00 | 0.00 | 0.00 | 28 | 1011.3 |
| 20260503192508 | 15 | 57 | 4.8 | 16.1 | 0.00 | 0.00 | 0.00 | 30 | 1011.3 |
| 20260503192003 | 14 | 325 | 4.8 | 17.7 | 0.00 | 0.00 | 0.00 | 31 | 1011.4 |
| 20260503191522 | 13 | 290 | 4.8 | 17.7 | 0.00 | 0.00 | 0.00 | 29 | 1011.4 |
| 20260503191006 | 13 | 352 | 3.2 | 17.7 | 0.00 | 0.00 | 0.00 | 32 | 1011.4 |
| 20260503190503 | 13 | 11 | 4.8 | 17.7 | 0.00 | 0.00 | 0.00 | 32 | 1011.5 |
| 20260503190029 | 13 | 44 | 4.8 | 16.1 | 0.00 | 0.00 | 0.00 | 31 | 1011.5 |
| 20260503185505 | 13 | 209 | 4.8 | 19.3 | 0.00 | 0.00 | 0.00 | 30 | 1011.6 |
| 20260503185002 | 13 | 96 | 4.8 | 17.7 | 0.00 | 0.00 | 0.00 | 31 | 1011.7 |
| 20260503184518 | 13 | 303 | 3.2 | 22.5 | 0.00 | 0.00 | 0.00 | 32 | 1011.7 |
| 20260503184004 | 13 | 188 | 4.8 | 22.5 | 0.00 | 0.00 | 0.00 | 30 | 1011.8 |
| 20260503183508 | 13 | 50 | 4.8 | 16.1 | 0.00 | 0.00 | 0.00 | 32 | 1011.9 |
| 20260503183015 | 13 | 5 | 6.4 | 20.9 | 0.00 | 0.00 | 0.00 | 31 | 1011.9 |
| 20260503182504 | 13 | 281 | 8.0 | 20.9 | 0.00 | 0.00 | 0.00 | 29 | 1011.8 |
| 20260503182011 | 13 | 276 | 6.4 | 22.5 | 0.00 | 0.00 | 0.00 | 33 | 1011.9 |
| 20260503181513 | 13 | 10 | 6.4 | 29.0 | 0.00 | 0.00 | 0.00 | 31 | 1012.0 |
| 20260503181004 | 13 | 78 | 9.7 | 29.0 | 0.00 | 0.00 | 0.00 | 29 | 1011.8 |
| 20260503180506 | 13 | 55 | 4.8 | 16.1 | 0.00 | 0.00 | 0.00 | 32 | 1012.0 |
| 20260503180009 | 13 | 339 | 6.4 | 16.1 | 0.00 | 0.00 | 0.00 | 30 | 1011.9 |
| 20260503175507 | 13 | 37 | 3.2 | 19.3 | 0.00 | 0.00 | 0.00 | 31 | 1011.9 |
| 20260503175003 | 13 | 303 | 4.8 | 19.3 | 0.00 | 0.00 | 0.00 | 33 | 1012.0 |
| 20260503174506 | 12 | 22 | 4.8 | 19.3 | 0.00 | 0.00 | 0.00 | 31 | 1011.9 |
| 20260503174008 | 12 | 306 | 3.2 | 20.9 | 0.00 | 0.00 | 0.00 | 31 | 1012.1 |
| 20260503173507 | 13 | 253 | 6.4 | 20.9 | 0.00 | 0.00 | 0.00 | 32 | 1012.3 |
| 20260503173015 | 13 | 182 | 4.8 | 17.7 | 0.00 | 0.00 | 0.00 | 34 | 1012.2 |
| 20260503172506 | 12 | 182 | 4.8 | 17.7 | 0.00 | 0.00 | 0.00 | 32 | 1012.2 |
| 20260503172003 | 12 | 199 | 3.2 | 17.7 | 0.00 | 0.00 | 0.00 | 34 | 1012.3 |
| 20260503171526 | 12 | 336 | 4.8 | 12.9 | 0.00 | 0.00 | 0.00 | 33 | 1012.3 |
| 20260503171009 | 11 | 337 | 3.2 | 22.5 | 0.00 | 0.00 | 0.00 | 34 | 1012.3 |
| 20260503170503 | 11 | 265 | 6.4 | 22.5 | 0.00 | 0.00 | 0.00 | 32 | 1012.5 |